Change the Weather History Date:

Thursday, June 13, 2013

  Actual Average Record
Temperature  
Mean Temperature 59 °F 64 °F  
Max Temperature 69 °F 77 °F 98 °F (1974)
Min Temperature 49 °F 51 °F 35 °F (1910)
Degree Days  
Heating Degree Days 6 3  
Month to date heating degree days 32 49  
Since 1 June heating degree days 32 49  
Since 1 July heating degree days 5054 5242  
Cooling Degree Days 0 2  
Month to date cooling degree days 30 22  
Year to date cooling degree days 61 45  
Since 1 June cooling degree days 30 22  
Growing Degree Days 8 (Base 50)    
Moisture  
Dew Point 39 °F    
Average Humidity 49    
Maximum Humidity 66    
Minimum Humidity 31    
Precipitation  
Precipitation T in 0.04 in 0.77 in (1913)
Month to date precipitation T 0.56  
Year to date precipitation 4.03 6.97  
Snow  
Snow 0.00 in 0.00 in 0.00 in (2002)
Month to date snowfall 0.0 0.0  
Year to date snowfall 0.2 7.7  
Since 1 July snowfall 2.0 15.2  
Snow Depth 0.00 in    
Sea Level Pressure  
Sea Level Pressure 30.08 in    
Wind  
Wind Speed 14 mph (WSW)    
Max Wind Speed 29 mph    
Max Gust Speed 36 mph    
Visibility 10 miles    
Events Rain    
T = Trace of Precipitation, MM = Missing Value Source: NWS Daily Summary

Daily Weather History Graph

Daily Weather History Graph

Search for Another Location

Airport or City:

Trip Planner

Search our weather history database for the weather conditions in past years. The results will help you decide how hot, cold, wet, or windy it might be!

Date:

Astronomy

Jun. 13, 2013 Rise Set
Actual Time 5:05 AM PDT 8:45 PM PDT
Civil Twilight 4:27 AM PDT 9:24 PM PDT
Nautical Twilight 3:36 AM PDT 10:15 PM PDT
Astronomical Twilight 2:27 AM PDT 11:24 PM PDT
Moon 9:58 AM PDT (6/13) 11:40 PM PDT (6/13)
Length of Visible Light 16h 56m
Length of Day
15h 40m
Waxing Crescent, 22% of the Moon is Illuminated
Jun 13
Waxing Crescent
Jun 16
First Quarter
Jun 23
Full
Jun 29
Last Quarter
Jul 8
New

Hourly Weather History & Observations

Time (PDT) Temp. Dew Point Humidity Pressure Visibility Wind Dir Wind Speed Gust Speed Precip Events Conditions
12:53 AM 52.0 °F 37.9 °F 59% 30.06 in 10.0 mi SSE 4.6 mph - N/A   Partly Cloudy
1:53 AM 51.1 °F 39.0 °F 63% 30.06 in 10.0 mi WSW 6.9 mph - N/A   Scattered Clouds
2:53 AM 50.0 °F 39.0 °F 66% 30.07 in 10.0 mi SSW 3.5 mph - N/A   Mostly Cloudy
3:53 AM 50.0 °F 37.9 °F 63% 30.07 in 10.0 mi Variable 6.9 mph - N/A   Clear
4:53 AM 50.0 °F 37.9 °F 63% 30.07 in 10.0 mi SW 9.2 mph - N/A   Clear
5:53 AM 50.0 °F 37.9 °F 63% 30.08 in 10.0 mi West 8.1 mph - N/A   Clear
6:53 AM 54.0 °F 39.0 °F 57% 30.08 in 10.0 mi West 11.5 mph - N/A   Partly Cloudy
7:53 AM 55.0 °F 39.0 °F 55% 30.09 in 10.0 mi West 18.4 mph 23.0 mph N/A   Scattered Clouds
8:53 AM 57.0 °F 39.0 °F 51% 30.10 in 10.0 mi West 13.8 mph - N/A   Overcast
9:53 AM 59.0 °F 37.9 °F 46% 30.09 in 10.0 mi West 16.1 mph 21.9 mph N/A   Overcast
10:53 AM 60.1 °F 37.0 °F 42% 30.09 in 10.0 mi West 17.3 mph 24.2 mph N/A   Overcast
11:53 AM 62.1 °F 37.0 °F 39% 30.08 in 10.0 mi West 16.1 mph 25.3 mph N/A   Overcast
12:53 PM 64.0 °F 36.0 °F 35% 30.07 in 10.0 mi West 16.1 mph 25.3 mph N/A   Mostly Cloudy
1:53 PM 64.9 °F 36.0 °F 34% 30.06 in 10.0 mi West 11.5 mph 16.1 mph N/A   Overcast
2:53 PM 66.0 °F 36.0 °F 33% 30.06 in 10.0 mi West 13.8 mph 20.7 mph N/A   Overcast
3:53 PM 60.1 °F 44.1 °F 55% 30.06 in 9.0 mi SSE 9.2 mph - 0.00 in Rain Light Rain
4:53 PM 60.1 °F 42.1 °F 51% 30.06 in 10.0 mi SSE 10.4 mph - 0.00 in Rain Light Rain
5:53 PM 60.1 °F 42.1 °F 51% 30.06 in 10.0 mi South 9.2 mph - 0.00 in   Overcast
6:53 PM 64.9 °F 34.0 °F 32% 30.06 in 10.0 mi West 18.4 mph 27.6 mph N/A   Mostly Cloudy
7:53 PM 61.0 °F 37.9 °F 42% 30.08 in 10.0 mi West 23.0 mph - N/A   Clear
8:53 PM 57.9 °F 39.0 °F 49% 30.09 in 10.0 mi West 17.3 mph - N/A   Clear
9:53 PM 57.0 °F 39.9 °F 53% 30.10 in 10.0 mi West 21.9 mph 28.8 mph N/A   Scattered Clouds
10:53 PM 55.9 °F 41.0 °F 57% 30.11 in 10.0 mi West 20.7 mph 28.8 mph N/A   Mostly Cloudy
11:53 PM 55.0 °F 41.0 °F 59% 30.12 in 10.0 mi West 25.3 mph 36.8 mph N/A   Overcast